User: anonymous   Login
Location: Brede
(50.9167°N, 0.6000°E)
Time: 16:02:57
(UTC+00:00)
Language:

USA 229 - Orbit

View from above orbital plane
View from above orbital plane
View from above satellite
View from above satellite

Ground track
Ground track

The orbit data is extracted from the following two-line orbital elements,

1 37386U 11014A   20288.79998832 0.00000000  00000-0  00000-0 0    02
2 37386  63.4417 162.4128 0177990 358.7455   1.2545 13.40808931    02
Epoch (UTC): 14 October 2020 19:11:58
Eccentricity: 0.0177990
inclination: 63.4417°
perigee height: 973 km
apogee height: 1239 km
right ascension of ascending node: 162.4128°
argument of perigee: 358.7455°
revolutions per day: 13.40808931
mean anomaly at epoch: 1.2545°
orbit number at epoch: 0

The dashed part of the orbit path shows where the satellite is in the earth's shadow,  

DLR